www.pogodaiklimat.ru

Погода и климат >> Архив погоды >> Австралия >> Западная Австралия >> Лавертон


ПОГОДА в Лавертоне

  • Прогноз погоды в Лавертоне
  • Монитор погоды в Лавертоне

АРХИВ ПОГОДЫ в Лавертоне

Время (UTC), дата Ветер
(напр.,м/с)
 
Видим.   Явления Облачность Т
(С)
Тd
(С)
f
(%)
Тe
(С)
Тes
(С)
Комфортность P
(гПа)
Po
(гПа)
Тmin
(С)
Tmax
(С)
R
(мм)
R24
(мм)
S
(см)
07 17.04 В 2 н/о н/о +26.7 +10.4 36 +27 +27 жарко 1017.6 964.6
09 17.04 В 4 н/о н/о +25.7 +10.3 38 +27 +27 жарко 1017.8 964.8
10 17.04 В 4 н/о н/о +24.4 +11.0 43 +26 +26 жарко 1018.2 965.2
12 17.04 В 5 н/о н/о +21.7 +11.4 52 +24 +24 комфорт 1019.3 966.2
13 17.04 В 5 н/о н/о +21.0 +11.3 54 +23 +23 комфорт 1019.6 966.5 +27.0
15 17.04 В 5 н/о н/о +19.0 +11.6 62 +20 +20 1019.0 966.0
16 17.04 В 5 н/о н/о +18.6 +11.4 63 +19 +19 1018.6 965.6
18 17.04 В 7 н/о н/о +17.3 +11.1 67 +16 +16 1017.9 964.9
19 17.04 В 7 н/о н/о +16.7 +11.0 69 +15 +15 1017.5 964.5
21 17.04 В 8 н/о н/о +16.0 +11.0 72 +14 +14 1017.6 964.6
22 17.04 В 9 н/о н/о +15.6 +11.0 74 +14 +14 1017.5 964.5
00 18.04 В 9 н/о н/о +17.5 +11.8 69 +16 +16 1017.9 964.9
01 18.04 СВ 6 н/о н/о +20.0 +12.5 62 +21 +21 комфорт 1018.0 965.0 +15.6
03 18.04 СВ 4 н/о н/о +25.9 +13.1 45 +28 +28 жарко 1016.4 963.5
04 18.04 СВ 3 н/о н/о +27.3 +12.5 40 +29 +29 жарко 1015.2 962.4
06 18.04 С 3 н/о н/о +28.7 +12.2 36 +30 +30 жарко 1013.4 960.7
07 18.04 С 4 н/о н/о +29.3 +12.7 36 +30 +30 жарко 1013.3 960.6
09 18.04 С 5 н/о н/о +27.7 +13.3 41 +29 +29 жарко 1013.0 960.3
10 18.04 СВ 3 н/о н/о +26.6 +13.7 45 +29 +29 жарко 1012.6 959.9
12 18.04 В 3 н/о н/о +24.7 +14.2 52 +27 +27 жарко 1012.9 960.2
13 18.04 В 5 н/о н/о +24.7 +14.2 52 +27 +27 жарко 1012.6 959.9 +29.7
15 18.04 В 7 н/о н/о +23.7 +15.2 59 +27 +27 жарко 1011.0 958.4
16 18.04 СВ 3 н/о н/о +21.8 +17.2 75 +26 +26 душно 1010.8 958.2
18 18.04 С 5 н/о н/о +22.1 +16.4 70 +26 +26 душно 1009.9 957.3
19 18.04 С 5 н/о н/о +21.5 +16.5 73 +25 +25 комфорт 1008.7 956.2
21 18.04 С 8 н/о н/о +22.9 +15.5 63 +27 +27 душно 1008.7 956.2
22 18.04 С 6 н/о н/о +21.8 +15.9 69 +25 +25 комфорт 1008.8 956.3
00 19.04 З 7 н/о н/о +21.1 +12.8 59 +23 +23 комфорт 1011.7 959.0
01 19.04 З 8 н/о н/о +21.7 +13.1 58 +24 +24 комфорт 1012.0 959.3 +17.5
03 19.04 З 9 н/о н/о +23.0 +11.1 47 +25 +25 комфорт 1012.0 959.3
04 19.04 З 9 н/о н/о +23.4 +8.7 39 +25 +25 комфорт 1011.4 958.8
06 19.04 З 9 н/о н/о +23.9 +8.7 38 +25 +25 комфорт 1011.0 958.4
07 19.04 З 8 н/о н/о +23.9 +8.3 37 +24 +24 комфорт 1011.0 958.4
09 19.04 З 7 н/о н/о +21.8 +6.9 38 +23 +23 комфорт 1012.1 959.4
10 19.04 З 7 н/о н/о +20.3 +6.3 40 +21 +21 комфорт 1013.1 960.4
12 19.04 ЮЗ 5 н/о н/о +18.0 +4.6 41 +18 +18 1015.3 962.5
13 19.04 ЮЗ 4 н/о н/о +16.8 +4.5 44 +16 +16 1016.2 963.3 +25.0
15 19.04 Ю 6 н/о н/о +14.7 +3.5 47 +13 +13 1017.0 964.1
16 19.04 ЮЗ 4 н/о н/о +13.7 +3.5 50 +12 +12 1017.2 964.3
18 19.04 ЮЗ 4 н/о н/о +12.3 +3.5 55 +11 +11 1017.9 964.9
19 19.04 Ю 6 н/о н/о +12.8 +2.1 48 +11 +11 1018.2 965.2
21 19.04 ЮЗ 5 н/о н/о +10.9 +2.5 56 +9 +9 1019.8 966.7
22 19.04 Ю 4 н/о н/о +10.0 +2.6 60 +8 +8 1020.2 967.1
00 20.04 Ю 6 н/о н/о +11.6 +1.8 51 +9 +9 1021.6 968.4
01 20.04 ЮЗ 6 н/о н/о +11.9 +1.3 48 +10 +10 1022.1 968.9 +9.7
03 20.04 Ю 8 н/о н/о +15.4 -0.8 33 +14 +14 1021.4 968.2
04 20.04 Ю 8 н/о н/о +15.2 -1.8 31 +14 +14 1020.6 967.5
06 20.04 ЮЗ 6 н/о н/о +16.1 -2.4 28 +15 +15 1019.6 966.5
07 20.04 ЮЗ 6 н/о н/о +16.4 -2.1 28 +15 +15 1019.7 966.6
09 20.04 Ю 6 н/о н/о +15.5 -2.9 28 +14 +14 1020.5 967.4
10 20.04 Ю 5 н/о н/о +14.6 -2.3 31 +13 +13 1021.5 968.3
12 20.04 ЮВ 4 н/о н/о +12.8 -2.6 34 +11 +11 1023.2 969.9
13 20.04 ЮВ 4 н/о н/о +12.0 -3.0 35 +11 +11 1023.8 970.5 +18.1
15 20.04 ЮВ 4 н/о н/о +10.4 -2.6 40 +9 +9 1023.4 970.1
16 20.04 ЮВ 3 н/о н/о +9.5 -2.8 42 +8 +8 1023.5 970.2
18 20.04 ЮВ 3 н/о н/о +8.3 -1.8 49 +6 +6 1023.7 970.4
19 20.04 ЮВ 3 н/о н/о +8.6 -2.1 47 +7 +7 1023.6 970.3
21 20.04 В 4 н/о н/о +8.4 +0.1 56 +6 +6 1024.2 970.9
22 20.04 В 4 н/о н/о +8.3 +1.0 60 +5 +5 1024.8 971.5
00 21.04 ЮВ 6 н/о н/о +11.4 +1.9 52 +9 +9 1026.5 973.1
01 21.04 ЮВ 8 н/о н/о +13.4 +1.7 45 +11 +11 1026.3 972.9 +8.0
03 21.04 ЮВ 5 н/о н/о +15.8 +1.5 38 +15 +15 1025.4 972.0
04 21.04 ЮВ 7 н/о н/о +17.4 +1.0 33 +17 +17 1024.7 971.4
06 21.04 ЮВ 6 н/о н/о +18.4 +0.5 30 +18 +18 1022.7 969.5
07 21.04 В 6 н/о н/о +18.9 +0.5 29 +19 +19 1022.7 969.5
09 21.04 В 6 н/о н/о +18.1 +0.7 31 +18 +18 1022.6 969.4
10 21.04 ЮВ 5 н/о н/о +17.0 +1.4 35 +16 +16 1023.4 970.1
12 21.04 В 4 н/о н/о +15.0 +2.2 42 +14 +14 1024.3 971.0
13 21.04 В 5 н/о н/о +14.5 +1.8 42 +13 +13 1024.6 971.3 +19.7
15 21.04 В 4 н/о н/о +12.8 +2.4 49 +11 +11 1024.0 970.7
16 21.04 В 5 н/о н/о +12.4 +2.6 51 +11 +11 1023.8 970.5
18 21.04 В 5 н/о н/о +11.2 +3.5 59 +9 +9 1023.7 970.4
19 21.04 В 3 н/о н/о +10.2 +3.5 63 +8 +8 1023.5 970.2
21 21.04 В 3 н/о н/о +9.3 +3.7 68 +7 +7 1023.6 970.3
22 21.04 В 5 н/о н/о +9.3 +3.9 69 +6 +6 1023.7 970.4
00 22.04 В 6 н/о н/о +13.1 +5.3 59 +11 +11 1024.8 971.5
01 22.04 В 9 н/о н/о +15.2 +5.1 51 +13 +13 1025.1 971.7 +9.1
03 22.04 СВ 6 н/о н/о +18.4 +4.2 39 +18 +18 1023.7 970.4
04 22.04 В 5 н/о н/о +19.6 +4.1 36 +20 +20 1022.6 969.4
06 22.04 В 5 н/о н/о +21.5 +2.7 29 +21 +21 комфорт 1021.3 968.1
07 22.04 В 6 н/о н/о +22.0 +3.2 29 +22 +22 комфорт 1020.9 967.8
09 22.04 В 6 н/о н/о +21.0 +3.2 31 +21 +21 комфорт 1021.0 967.9
10 22.04 В 5 н/о н/о +19.6 +3.3 34 +20 +20 1021.4 968.2
12 22.04 В 3 н/о н/о +15.9 +4.0 45 +16 +16 1022.8 969.6
13 22.04 В 5 н/о н/о +16.3 +3.7 43 +16 +16 1023.2 969.9 +22.4
15 22.04 СВ 4 н/о н/о +13.8 +4.1 52 +12 +12 1023.2 969.9
16 22.04 СВ 5 н/о н/о +13.7 +4.0 52 +12 +12 1022.7 969.5
18 22.04 В 4 н/о н/о +11.4 +4.2 61 +10 +10 1022.9 969.7
19 22.04 В 4 н/о н/о +10.5 +4.0 64 +8 +8 1022.5 969.3
21 22.04 В 4 н/о н/о +10.7 +3.7 62 +9 +9 1022.4 969.2
22 22.04 В 4 н/о н/о +10.9 +3.7 61 +9 +9 1022.7 969.5
00 23.04 В 7 н/о н/о +15.4 +4.2 47 +14 +14 1023.5 970.2
01 23.04 В 7 н/о н/о +18.0 +4.6 41 +17 +17 1023.7 970.4 +10.5
03 23.04 В 5 н/о н/о +21.2 +3.9 32 +21 +21 комфорт 1023.2 969.9
04 23.04 В 3 н/о н/о +21.7 +3.9 31 +22 +22 комфорт 1022.5 969.3
06 23.04 В 5 н/о н/о +23.8 +3.7 27 +23 +23 комфорт 1021.0 967.9
07 23.04 ЮВ 5 н/о н/о +24.0 +2.2 24 +23 +23 комфорт 1021.0 967.9
09 23.04 В 6 н/о н/о +23.7 +2.5 25 +23 +23 комфорт 1021.7 968.5
10 23.04 В 4 н/о н/о +21.8 +3.0 29 +22 +22 комфорт 1022.3 969.1
12 23.04 В 4 н/о н/о +19.2 +3.4 35 +19 +19 1023.7 970.4
13 23.04 В 5 н/о н/о +17.9 +3.4 38 +18 +18 1023.8 970.5 +25.4
15 23.04 В 4 н/о н/о +15.8 +3.9 45 +15 +15 1023.9 970.6
16 23.04 В 3 н/о н/о +13.9 +4.2 52 +13 +13 1023.9 970.6
18 23.04 В 4 н/о н/о +14.1 +4.4 52 +13 +13 1023.8 970.5
19 23.04 В 5 н/о н/о +13.3 +4.5 55 +12 +12 1023.6 970.3
21 23.04 В 5 н/о н/о +12.5 +4.7 59 +10 +10 1024.2 970.9
22 23.04 В 4 н/о н/о +11.7 +4.9 63 +10 +10 1024.7 971.4
00 24.04 В 6 н/о н/о +16.4 +5.7 49 +15 +15 1025.8 972.4
01 24.04 В 7 н/о н/о +19.4 +5.1 39 +19 +19 1026.1 972.7 +11.6
03 24.04 В 6 н/о н/о +22.3 +4.8 32 +23 +23 комфорт 1025.1 971.7
04 24.04 В 5 н/о н/о +23.2 +4.7 30 +23 +23 комфорт 1024.1 970.8
06 24.04 В 4 н/о н/о +25.0 +2.4 23 +24 +24 комфорт 1022.6 969.4
07 24.04 ЮВ 6 н/о н/о +25.5 +2.9 23 +24 +24 комфорт 1022.5 969.3

 

Местоположение метеостанции Лавертон (Западная Австралия, Австралия): широта -28.61 долгота 122.41 высота над уровнем моря 465 м.

В архиве по умолчанию представлена погода в Лавертоне за последнюю неделю. Архивные данные за месяц целиком и за предыдущие месяцы, начиная с января 2011 года, Вы можете получить, выбрав интересующий диапазон дат из раскрывающегося списка и нажав кнопку "Ввод!".


*Определитесь, кто Вы:
робот инопланетянин человек

Внимание! Время в таблицах - всемирное. Для получения местного времени необходимо прибавить поправку, которая равна 8 ч.

Смотрите также архив погоды в соседних городах и на ближайших метеорологических станциях:

Погода в Леонора аэропорту (Западная Австралия, Австралия) (110 км)
Погода в Леинстере (Западная Австралия, Австралия) (188 км)
Погода в Калгурли-Боулдере (Западная Австралия, Австралия) (259 км)
Погода в Норсмане (Западная Австралия, Австралия) (406 км)
Погода в Саутерн Кросс (Западная Австралия, Австралия) (415 км)
Погода в Микатарре (Западная Австралия, Австралия) (441 км)
Погода в Маунт Магнет аэропорту (Западная Австралия, Австралия) (452 км)
Погода в Салмон Гамс (Западная Австралия, Австралия) (492 км)
Погода в Уорбертоне (Западная Австралия, Австралия) (496 км)
Погода в Эсперансе (Западная Австралия, Австралия) (567 км)

Пояснения к столбцам:

Ветер - указаны скорость ветра в м/с - средняя за 10 мин, порывы в срок и между сроками (в фигурных скобках) и направление, откуда дует ветер: С - северный, СВ - северо-восточный, В - восточный, ЮВ - юго-восточный, Ю - южный, ЮЗ - юго-западный, З - западный, СЗ - северо-западный.
Видимость - горизонтальная дальность видимости в метрах или километрах. При видимости от 1 до 10 км при отсутствии осадков обычно наблюдается дымка, при ухудшении видимости до 1 км и менее - туман. В сухую погоду видимость может ухудшаться дымом, пылью или мглою.
Явления - указаны атмосферные явления, наблюдавшиеся в срок или в последний час перед сроком; фигурными скобками обозначены явления, наблюдавшиеся между сроками (за 1-3 часа до срока); квадратными скобками обозначены град или гололедные отложения с указанием их диаметра в мм.
Облачность - указаны через наклонную черту общая и нижняя облачность в баллах и высота нижней границы облаков в метрах; квадратными скобками обозначены формы облаков: Ci - перистые, Cs - перисто-слоистые, Cc - перисто-кучевые, Ac - высококучевые, As - высокослоистые, Sc - слоисто-кучевые, Ns - слоисто-дождевые, Cu - кучевые, Cb - кучево-дождевые. Подробнее классификацию облаков см. в Атласе облаков (PDF).
T - Температура воздуха - температура, измеренная на высоте 2 м над землей.
Td - Температура точки росы - температура, при понижении до которой содержащийся в воздухе водяной пар достигнет насыщения.
f - Относительная влажность воздуха - влажноcть воздуха, измеренная на высоте 2 м над землей.
Te - Эффективная температура - температура, которую ощущает одетый по сезону человек в тени. Характеристика душности погоды. При расчете учитывается влияние влажности воздуха и скорости ветра на теплоощущения человека.
Tes - Эффективная температура на солнце - температура, которую ощущает человек, с поправкой на солнечный нагрев. Характеристика знойности погоды. Зависит от высоты солнца над горизонтом, облачности и скорости ветра. Ночью, в пасмурную погоду, а также при ветре 12 м/с и более поправка равна нулю.
P - Атмосферное давление - приведенное к уровню моря атмосферное давление.
Po - Атмосферное давление - измеренное на уровне метеостанции атмосферное давление.
Tmin - Минимальная температура - минимум температуры воздуха на высоте 2 м над землей.
Tmax - Максимальная температура - максимум температуры воздуха на высоте 2 м над землей.
R - Количество осадков - Количество выпавших осадков за период времени, мм. При наведении курсора мыши на число - период времени, за который выпало указанное количество осадков.
R24 - Количество осадков - Количество выпавших осадков за 24 часа, мм.
S - Снежный покров - Высота снежного покрова, см. При наведении курсора мыши на число - состояние снежного покрова и степень покрытия местности в баллах.